Weather in Polevskoj

Russia / Sverdlovsk Oblast     56°26′47″N   60°10′37″E
temp.,
°C
wind,
m/s
gust,
m/s
humid.,
%
clouds,
%
prec.,
mm/h
press.,
hPa
HPBL,
m
2 march, tue
tue223:00−18ssw229773 0.1 101620
02:00−18wsw249752 0.0 101688
05:00−17wsw3109538 0.0 1014283
08:00−18wsw4139380 0.0 1011352
11:00−14sw5119085 0.0 1009400
14:00−11sw51186100 0.0 1006472
17:00−8sw51387100 0.0 1004680
20:00−9sw51389100 0.1 1002774
3 march, wed
wed323:00−13sw51388100 0.1 1002523
02:00−12sw51388100 0.0 1000460
05:00−10sw51387100 0.0 999531
08:00−9sw6158880 0.0 997449
11:00−4wsw6138643 0.0 997661
14:00−2w6108380 0.0 997978
17:00−3w598487 0.1 998912
20:00−7sw359581 0.0 999113
4 march, thu
thu423:00−8wsw379490 0.0 999195
02:00−8sw3795100 0.0 998176
05:00−9sw3895100 0.0 997191
08:00−9sw4109396 0.0 997352
11:00−6w5108695 0.0 997756
14:00−6w6981100 0.1 9981097
17:00−7w51083100 0.2 998967
20:00−9wsw5138988 0.0 999625
5 march, fri
fri523:00−9wsw5148784 0.0 999582
02:00−8sw51587100 0.0 997686
05:00−6sw61690100 0.4 9941176
08:00−5wsw7158488 0.1 9941082
11:00−4wsw6128592 0.1 996816
14:00−3wsw5108198 0.0 998794
17:00−4wsw369099 0.1 998601
20:00−7wnw129785 0.2 99821
6 march, sat
sat623:00−7nw389593 0.8 1000491
02:00−12wnw4119391 0.1 1003397
05:00−14w5139283 0.1 1007433
08:00−16w5139182 0.0 1010493
11:00−14w6128790 0.0 1011583
14:00−11w5985100 0.0 1012700
17:00−11w4886100 0.1 1012717
20:00−15wsw3994100 0.0 1012268